User: anonymous   Login
Location: Hoyos del Collado
(40.3594°N, 5.2003°W)
Time: 16:14:17
(UTC+00:00)
Language:

Resurs 01 Rocket - Orbit

View from above orbital plane
View from above orbital plane
View from above satellite
View from above satellite

Ground track
Ground track

The orbit data is extracted from the following two-line orbital elements,

1 23343U 94074B   24166.63484323  .00000750  00000-0  11054-3 0  9997
2 23343  97.7872 209.6854 0008047 115.1933   0.4451 14.78100716593683
Epoch (UTC): 14 June 2024 15:14:10
Eccentricity: 0.0008047
inclination: 97.7872°
perigee height: 629 km
apogee height: 641 km
right ascension of ascending node: 209.6854°
argument of perigee: 115.1933°
revolutions per day: 14.78100716
mean anomaly at epoch: 0.4451°
orbit number at epoch: 59368

The dashed part of the orbit path shows where the satellite is in the earth's shadow,  

DLR